Time,TemperatureF,DewpointF,PressureIn,WindDirection,WindDirectionDegrees,WindSpeedMPH,WindSpeedGustMPH,Humidity,HourlyPrecipIn,Conditions,Clouds,dailyrainin,SoftwareType,DateUTC
2013-04-15 00:00:00,34.3,24.8,30.18,North,-999,0.0,0.0,68,0.00,,,-99.99,WeatherLink 5.5,2013-04-15 04:00:00,
2013-04-15 00:05:00,33.8,24.7,30.19,North,-999,0.0,0.0,69,0.00,,,-99.99,WeatherLink 5.5,2013-04-15 04:05:00,
2013-04-15 00:10:00,33.7,25.0,30.19,North,-999,0.0,0.0,70,0.00,,,-99.99,WeatherLink 5.5,2013-04-15 04:10:00,
2013-04-15 00:15:00,33.7,25.0,30.19,North,-999,0.0,0.0,70,0.00,,,-99.99,WeatherLink 5.5,2013-04-15 04:15:00,
2013-04-15 00:20:00,33.2,24.8,30.19,North,-999,0.0,0.0,71,0.00,,,-99.99,WeatherLink 5.5,2013-04-15 04:20:00,
2013-04-15 00:25:00,33.1,24.7,30.19,North,-999,0.0,0.0,71,0.00,,,-99.99,WeatherLink 5.5,2013-04-15 04:25:00,
2013-04-15 00:30:00,33.1,24.7,30.19,North,-999,0.0,0.0,71,0.00,,,-99.99,WeatherLink 5.5,2013-04-15 04:30:00,
2013-04-15 00:35:00,32.8,24.4,30.19,North,-999,0.0,0.0,71,0.00,,,-99.99,WeatherLink 5.5,2013-04-15 04:35:00,
2013-04-15 00:40:00,32.8,24.8,30.19,North,-999,0.0,0.0,72,0.00,,,-99.99,WeatherLink 5.5,2013-04-15 04:40:00,
2013-04-15 00:45:00,32.8,24.8,30.19,North,-999,0.0,0.0,72,0.00,,,-99.99,WeatherLink 5.5,2013-04-15 04:45:00,
2013-04-15 00:50:00,32.6,24.6,30.19,North,-999,0.0,0.0,72,0.00,,,-99.99,WeatherLink 5.5,2013-04-15 04:50:00,
2013-04-15 00:55:00,32.6,24.6,30.19,North,-999,0.0,0.0,72,0.00,,,-99.99,WeatherLink 5.5,2013-04-15 04:55:00,
2013-04-15 01:00:00,32.6,24.6,30.19,North,-999,0.0,0.0,72,0.00,,,-99.99,WeatherLink 5.5,2013-04-15 05:00:00,
2013-04-15 01:05:00,32.4,24.4,30.20,North,-999,0.0,0.0,72,0.00,,,-99.99,WeatherLink 5.5,2013-04-15 05:05:00,
2013-04-15 01:10:00,32.4,24.7,30.20,North,-999,0.0,0.0,73,0.00,,,-99.99,WeatherLink 5.5,2013-04-15 05:10:00,
2013-04-15 01:15:00,32.4,24.7,30.20,North,-999,0.0,0.0,73,0.00,,,-99.99,WeatherLink 5.5,2013-04-15 05:15:00,
2013-04-15 01:20:00,32.2,24.2,30.21,North,-999,0.0,0.0,72,0.00,,,-99.99,WeatherLink 5.5,2013-04-15 05:20:00,
2013-04-15 01:25:00,32.2,24.5,30.21,North,-999,0.0,0.0,73,0.00,,,-99.99,WeatherLink 5.5,2013-04-15 05:25:00,
2013-04-15 01:30:00,32.2,24.5,30.21,North,-999,0.0,0.0,73,0.00,,,-99.99,WeatherLink 5.5,2013-04-15 05:30:00,
2013-04-15 01:35:00,32.1,24.4,30.20,West,270,0.0,2.0,73,0.00,,,-99.99,WeatherLink 5.5,2013-04-15 05:35:00,
2013-04-15 01:40:00,32.2,24.5,30.20,North,-999,0.0,0.0,73,0.00,,,-99.99,WeatherLink 5.5,2013-04-15 05:40:00,
2013-04-15 01:45:00,32.2,24.5,30.20,North,-999,0.0,0.0,73,0.00,,,-99.99,WeatherLink 5.5,2013-04-15 05:45:00,
2013-04-15 01:50:00,32.2,24.5,30.20,North,-999,0.0,0.0,73,0.00,,,-99.99,WeatherLink 5.5,2013-04-15 05:50:00,
2013-04-15 01:55:00,32.1,24.4,30.20,North,-999,0.0,0.0,73,0.00,,,-99.99,WeatherLink 5.5,2013-04-15 05:55:00,
2013-04-15 02:00:00,32.1,24.4,30.20,North,-999,0.0,0.0,73,0.00,,,-99.99,WeatherLink 5.5,2013-04-15 06:00:00,
2013-04-15 02:05:00,31.8,24.1,30.21,North,-999,0.0,0.0,73,0.00,,,-99.99,WeatherLink 5.5,2013-04-15 06:05:00,
2013-04-15 02:10:00,31.6,23.9,30.21,North,-999,0.0,0.0,73,0.00,,,-99.99,WeatherLink 5.5,2013-04-15 06:10:00,
2013-04-15 02:15:00,31.6,23.9,30.21,North,-999,0.0,0.0,73,0.00,,,-99.99,WeatherLink 5.5,2013-04-15 06:15:00,
2013-04-15 02:20:00,31.3,24.0,30.21,North,-999,0.0,0.0,74,0.00,,,-99.99,WeatherLink 5.5,2013-04-15 06:20:00,
2013-04-15 02:25:00,31.3,24.0,30.21,North,-999,0.0,0.0,74,0.00,,,-99.99,WeatherLink 5.5,2013-04-15 06:25:00,
2013-04-15 02:30:00,31.3,24.0,30.21,North,-999,0.0,0.0,74,0.00,,,-99.99,WeatherLink 5.5,2013-04-15 06:30:00,
2013-04-15 02:35:00,31.0,23.7,30.21,North,-999,0.0,0.0,74,0.00,,,-99.99,WeatherLink 5.5,2013-04-15 06:35:00,
2013-04-15 02:40:00,30.9,23.9,30.21,West,270,0.0,1.0,75,0.00,,,-99.99,WeatherLink 5.5,2013-04-15 06:40:00,
2013-04-15 02:45:00,30.9,23.9,30.21,West,270,0.0,1.0,75,0.00,,,-99.99,WeatherLink 5.5,2013-04-15 06:45:00,
2013-04-15 02:50:00,30.7,24.0,30.21,North,-999,0.0,0.0,76,0.00,,,-99.99,WeatherLink 5.5,2013-04-15 06:50:00,
2013-04-15 02:55:00,30.7,24.0,30.21,North,-999,0.0,0.0,76,0.00,,,-99.99,WeatherLink 5.5,2013-04-15 06:55:00,
2013-04-15 03:00:00,30.7,24.0,30.21,North,-999,0.0,0.0,76,0.00,,,-99.99,WeatherLink 5.5,2013-04-15 07:00:00,
2013-04-15 03:05:00,30.6,23.9,30.21,North,-999,0.0,0.0,76,0.00,,,-99.99,WeatherLink 5.5,2013-04-15 07:05:00,
2013-04-15 03:10:00,30.4,23.7,30.21,North,-999,0.0,0.0,76,0.00,,,-99.99,WeatherLink 5.5,2013-04-15 07:10:00,
2013-04-15 03:15:00,30.4,23.7,30.21,North,-999,0.0,0.0,76,0.00,,,-99.99,WeatherLink 5.5,2013-04-15 07:15:00,
2013-04-15 03:20:00,30.3,24.0,30.21,North,-999,0.0,0.0,77,0.00,,,-99.99,WeatherLink 5.5,2013-04-15 07:20:00,
2013-04-15 03:25:00,30.1,23.8,30.21,North,-999,0.0,0.0,77,0.00,,,-99.99,WeatherLink 5.5,2013-04-15 07:25:00,
2013-04-15 03:30:00,30.1,23.8,30.21,North,-999,0.0,0.0,77,0.00,,,-99.99,WeatherLink 5.5,2013-04-15 07:30:00,
2013-04-15 03:35:00,30.0,23.7,30.21,North,-999,0.0,0.0,77,0.00,,,-99.99,WeatherLink 5.5,2013-04-15 07:35:00,
2013-04-15 03:40:00,29.8,23.5,30.21,North,-999,0.0,0.0,77,0.00,,,-99.99,WeatherLink 5.5,2013-04-15 07:40:00,
2013-04-15 03:45:00,29.8,23.5,30.21,North,-999,0.0,0.0,77,0.00,,,-99.99,WeatherLink 5.5,2013-04-15 07:45:00,
2013-04-15 03:50:00,29.8,23.8,30.22,North,-999,0.0,0.0,78,0.00,,,-99.99,WeatherLink 5.5,2013-04-15 07:50:00,
2013-04-15 03:55:00,29.8,23.8,30.22,North,-999,0.0,0.0,78,0.00,,,-99.99,WeatherLink 5.5,2013-04-15 07:55:00,
2013-04-15 04:00:00,29.8,23.8,30.22,North,-999,0.0,0.0,78,0.00,,,-99.99,WeatherLink 5.5,2013-04-15 08:00:00,
2013-04-15 04:05:00,29.7,23.7,30.23,North,-999,0.0,0.0,78,0.00,,,-99.99,WeatherLink 5.5,2013-04-15 08:05:00,
2013-04-15 04:10:00,29.7,23.7,30.23,North,-999,0.0,0.0,78,0.00,,,-99.99,WeatherLink 5.5,2013-04-15 08:10:00,
2013-04-15 04:15:00,29.7,23.7,30.23,North,-999,0.0,0.0,78,0.00,,,-99.99,WeatherLink 5.5,2013-04-15 08:15:00,
2013-04-15 04:20:00,29.5,23.5,30.24,North,-999,0.0,0.0,78,0.00,,,-99.99,WeatherLink 5.5,2013-04-15 08:20:00,
2013-04-15 04:25:00,29.4,23.4,30.24,North,-999,0.0,0.0,78,0.00,,,-99.99,WeatherLink 5.5,2013-04-15 08:25:00,
2013-04-15 04:30:00,29.4,23.4,30.24,North,-999,0.0,0.0,78,0.00,,,-99.99,WeatherLink 5.5,2013-04-15 08:30:00,
2013-04-15 04:35:00,29.2,23.2,30.24,North,-999,0.0,0.0,78,0.00,,,-99.99,WeatherLink 5.5,2013-04-15 08:35:00,
2013-04-15 04:40:00,29.2,23.5,30.24,North,-999,0.0,0.0,79,0.00,,,-99.99,WeatherLink 5.5,2013-04-15 08:40:00,
2013-04-15 04:45:00,29.2,23.5,30.24,North,-999,0.0,0.0,79,0.00,,,-99.99,WeatherLink 5.5,2013-04-15 08:45:00,
2013-04-15 04:50:00,29.1,23.4,30.25,North,-999,0.0,0.0,79,0.00,,,-99.99,WeatherLink 5.5,2013-04-15 08:50:00,
2013-04-15 04:55:00,29.1,23.4,30.25,North,-999,0.0,0.0,79,0.00,,,-99.99,WeatherLink 5.5,2013-04-15 08:55:00,
2013-04-15 05:00:00,29.1,23.4,30.25,North,-999,0.0,0.0,79,0.00,,,-99.99,WeatherLink 5.5,2013-04-15 09:00:00,
2013-04-15 05:05:00,29.0,23.3,30.25,North,-999,0.0,0.0,79,0.00,,,-99.99,WeatherLink 5.5,2013-04-15 09:05:00,
2013-04-15 05:10:00,28.8,23.1,30.25,North,-999,0.0,0.0,79,0.00,,,-99.99,WeatherLink 5.5,2013-04-15 09:10:00,
2013-04-15 05:15:00,28.8,23.1,30.25,North,-999,0.0,0.0,79,0.00,,,-99.99,WeatherLink 5.5,2013-04-15 09:15:00,
2013-04-15 05:20:00,28.7,23.0,30.25,North,-999,0.0,0.0,79,0.00,,,-99.99,WeatherLink 5.5,2013-04-15 09:20:00,
2013-04-15 05:25:00,28.7,23.0,30.25,North,-999,0.0,0.0,79,0.00,,,-99.99,WeatherLink 5.5,2013-04-15 09:25:00,
2013-04-15 05:30:00,28.7,23.0,30.25,North,-999,0.0,0.0,79,0.00,,,-99.99,WeatherLink 5.5,2013-04-15 09:30:00,
2013-04-15 05:35:00,28.5,23.1,30.26,North,-999,0.0,0.0,80,0.00,,,-99.99,WeatherLink 5.5,2013-04-15 09:35:00,
2013-04-15 05:40:00,28.5,23.1,30.26,North,-999,0.0,0.0,80,0.00,,,-99.99,WeatherLink 5.5,2013-04-15 09:40:00,
2013-04-15 05:45:00,28.5,23.1,30.26,North,-999,0.0,0.0,80,0.00,,,-99.99,WeatherLink 5.5,2013-04-15 09:45:00,
2013-04-15 05:50:00,28.5,23.1,30.27,North,-999,0.0,0.0,80,0.00,,,-99.99,WeatherLink 5.5,2013-04-15 09:50:00,
2013-04-15 05:55:00,28.5,23.1,30.27,North,-999,0.0,0.0,80,0.00,,,-99.99,WeatherLink 5.5,2013-04-15 09:55:00,
2013-04-15 06:00:00,28.5,23.1,30.27,North,-999,0.0,0.0,80,0.00,,,-99.99,WeatherLink 5.5,2013-04-15 10:00:00,
2013-04-15 06:05:00,28.4,23.0,30.27,North,-999,0.0,0.0,80,0.00,,,-99.99,WeatherLink 5.5,2013-04-15 10:05:00,
2013-04-15 06:10:00,28.4,23.0,30.27,North,-999,0.0,0.0,80,0.00,,,-99.99,WeatherLink 5.5,2013-04-15 10:10:00,
2013-04-15 06:15:00,28.4,23.0,30.27,North,-999,0.0,0.0,80,0.00,,,-99.99,WeatherLink 5.5,2013-04-15 10:15:00,
2013-04-15 06:20:00,28.4,23.0,30.28,North,-999,0.0,0.0,80,0.00,,,-99.99,WeatherLink 5.5,2013-04-15 10:20:00,
2013-04-15 06:25:00,28.4,23.0,30.28,North,-999,0.0,0.0,80,0.00,,,-99.99,WeatherLink 5.5,2013-04-15 10:25:00,
2013-04-15 06:30:00,28.4,23.0,30.28,North,-999,0.0,0.0,80,0.00,,,-99.99,WeatherLink 5.5,2013-04-15 10:30:00,
2013-04-15 06:35:00,28.5,23.4,30.29,North,-999,0.0,0.0,81,0.00,,,-99.99,WeatherLink 5.5,2013-04-15 10:35:00,
2013-04-15 06:40:00,28.7,23.6,30.29,North,-999,0.0,0.0,81,0.00,,,-99.99,WeatherLink 5.5,2013-04-15 10:40:00,
2013-04-15 06:45:00,28.7,23.6,30.29,North,-999,0.0,0.0,81,0.00,,,-99.99,WeatherLink 5.5,2013-04-15 10:45:00,
2013-04-15 06:55:00,29.4,24.3,30.30,North,-999,0.0,0.0,81,0.00,,,-99.99,WeatherLink 5.5,2013-04-15 10:55:00,
2013-04-15 07:00:00,29.4,24.3,30.30,North,-999,0.0,0.0,81,0.00,,,-99.99,WeatherLink 5.5,2013-04-15 11:00:00,
2013-04-15 07:05:00,30.0,24.9,30.32,North,-999,0.0,0.0,81,0.00,,,-99.99,WeatherLink 5.5,2013-04-15 11:05:00,
2013-04-15 07:10:00,30.4,25.3,30.32,North,-999,0.0,0.0,81,0.00,,,-99.99,WeatherLink 5.5,2013-04-15 11:10:00,
2013-04-15 07:15:00,30.4,25.3,30.32,North,-999,0.0,0.0,81,0.00,,,-99.99,WeatherLink 5.5,2013-04-15 11:15:00,
2013-04-15 07:20:00,31.6,26.4,30.32,North,-999,0.0,0.0,81,0.00,,,-99.99,WeatherLink 5.5,2013-04-15 11:20:00,
2013-04-15 07:25:00,32.5,27.3,30.32,North,-999,0.0,0.0,81,0.00,,,-99.99,WeatherLink 5.5,2013-04-15 11:25:00,
2013-04-15 07:30:00,32.5,27.3,30.32,North,-999,0.0,0.0,81,0.00,,,-99.99,WeatherLink 5.5,2013-04-15 11:30:00,
2013-04-15 07:35:00,34.3,28.5,30.33,North,-999,0.0,0.0,79,0.00,,,-99.99,WeatherLink 5.5,2013-04-15 11:35:00,
2013-04-15 07:40:00,34.7,28.5,30.33,North,-999,0.0,0.0,78,0.00,,,-99.99,WeatherLink 5.5,2013-04-15 11:40:00,
2013-04-15 07:45:00,34.7,28.5,30.33,North,-999,0.0,0.0,78,0.00,,,-99.99,WeatherLink 5.5,2013-04-15 11:45:00,
2013-04-15 07:50:00,35.6,28.8,30.33,North,-999,0.0,0.0,76,0.00,,,-99.99,WeatherLink 5.5,2013-04-15 11:50:00,
2013-04-15 07:55:00,36.0,28.5,30.33,North,-999,0.0,0.0,74,0.00,,,-99.99,WeatherLink 5.5,2013-04-15 11:55:00,
2013-04-15 08:00:00,36.0,28.5,30.33,North,-999,0.0,0.0,74,0.00,,,-99.99,WeatherLink 5.5,2013-04-15 12:00:00,
2013-04-15 08:05:00,36.7,27.1,30.33,North,-999,0.0,0.0,68,0.00,,,-99.99,WeatherLink 5.5,2013-04-15 12:05:00,
2013-04-15 08:10:00,37.3,27.3,30.33,West,270,0.0,1.0,67,0.00,,,-99.99,WeatherLink 5.5,2013-04-15 12:10:00,
2013-04-15 08:15:00,37.3,27.3,30.33,West,270,0.0,1.0,67,0.00,,,-99.99,WeatherLink 5.5,2013-04-15 12:15:00,
2013-04-15 08:20:00,38.3,27.2,30.34,West,270,0.0,1.0,64,0.00,,,-99.99,WeatherLink 5.5,2013-04-15 12:20:00,
2013-04-15 08:25:00,38.9,27.4,30.34,West,270,0.0,2.0,63,0.00,,,-99.99,WeatherLink 5.5,2013-04-15 12:25:00,
2013-04-15 08:30:00,38.9,27.4,30.34,West,270,0.0,2.0,63,0.00,,,-99.99,WeatherLink 5.5,2013-04-15 12:30:00,
2013-04-15 08:35:00,40.2,27.4,30.34,West,270,0.0,1.0,60,0.00,,,-99.99,WeatherLink 5.5,2013-04-15 12:35:00,
2013-04-15 08:40:00,40.8,26.3,30.34,NW,315,1.0,4.0,56,0.00,,,-99.99,WeatherLink 5.5,2013-04-15 12:40:00,
2013-04-15 08:45:00,40.8,26.3,30.34,NW,315,1.0,4.0,56,0.00,,,-99.99,WeatherLink 5.5,2013-04-15 12:45:00,
2013-04-15 08:50:00,41.9,26.9,30.34,NNW,337,1.0,4.0,55,0.00,,,-99.99,WeatherLink 5.5,2013-04-15 12:50:00,
2013-04-15 08:55:00,42.2,26.7,30.34,NNW,337,0.0,2.0,54,0.00,,,-99.99,WeatherLink 5.5,2013-04-15 12:55:00,
2013-04-15 09:00:00,42.5,26.6,30.34,NNW,337,1.0,4.0,53,0.00,,,-99.99,WeatherLink 5.5,2013-04-15 13:00:00,
2013-04-15 09:05:00,42.6,26.6,30.34,NW,315,1.0,4.0,53,0.00,,,-99.99,WeatherLink 5.5,2013-04-15 13:05:00,
2013-04-15 09:10:00,42.9,26.5,30.34,West,270,0.0,1.0,52,0.00,,,-99.99,WeatherLink 5.5,2013-04-15 13:10:00,
2013-04-15 09:15:00,42.9,26.5,30.34,West,270,0.0,1.0,52,0.00,,,-99.99,WeatherLink 5.5,2013-04-15 13:15:00,
2013-04-15 09:20:00,43.9,26.4,30.34,West,270,1.0,4.0,50,0.00,,,-99.99,WeatherLink 5.5,2013-04-15 13:20:00,
2013-04-15 09:25:00,44.2,26.7,30.34,West,270,0.0,1.0,50,0.00,,,-99.99,WeatherLink 5.5,2013-04-15 13:25:00,
2013-04-15 09:30:00,44.2,26.7,30.34,West,270,0.0,1.0,50,0.00,,,-99.99,WeatherLink 5.5,2013-04-15 13:30:00,
2013-04-15 09:35:00,46.5,26.8,30.34,NNE,22,0.0,1.0,46,0.00,,,-99.99,WeatherLink 5.5,2013-04-15 13:35:00,
2013-04-15 09:40:00,47.3,25.9,30.34,NNE,22,1.0,6.0,43,0.00,,,-99.99,WeatherLink 5.5,2013-04-15 13:40:00,
2013-04-15 09:45:00,47.3,25.9,30.34,NNE,22,1.0,6.0,43,0.00,,,-99.99,WeatherLink 5.5,2013-04-15 13:45:00,
2013-04-15 09:50:00,46.8,25.5,30.34,ESE,112,0.0,1.0,43,0.00,,,-99.99,WeatherLink 5.5,2013-04-15 13:50:00,
2013-04-15 09:55:00,47.0,25.1,30.34,ESE,112,1.0,6.0,42,0.00,,,-99.99,WeatherLink 5.5,2013-04-15 13:55:00,
2013-04-15 10:00:00,47.0,25.1,30.34,ESE,112,1.0,6.0,42,0.00,,,-99.99,WeatherLink 5.5,2013-04-15 14:00:00,
2013-04-15 10:05:00,48.3,25.1,30.34,SE,135,1.0,4.0,40,0.00,,,-99.99,WeatherLink 5.5,2013-04-15 14:05:00,
2013-04-15 10:10:00,48.2,25.0,30.34,ESE,112,1.0,6.0,40,0.00,,,-99.99,WeatherLink 5.5,2013-04-15 14:10:00,
2013-04-15 10:15:00,48.2,25.0,30.34,ESE,112,1.0,6.0,40,0.00,,,-99.99,WeatherLink 5.5,2013-04-15 14:15:00,
2013-04-15 10:20:00,47.9,24.7,30.34,ENE,67,0.0,1.0,40,0.00,,,-99.99,WeatherLink 5.5,2013-04-15 14:20:00,
2013-04-15 10:25:00,48.2,25.6,30.34,North,-999,0.0,0.0,41,0.00,,,-99.99,WeatherLink 5.5,2013-04-15 14:25:00,
2013-04-15 10:30:00,48.2,25.6,30.34,North,-999,0.0,0.0,41,0.00,,,-99.99,WeatherLink 5.5,2013-04-15 14:30:00,
2013-04-15 10:35:00,48.2,25.0,30.35,ESE,112,0.0,1.0,40,0.00,,,-99.99,WeatherLink 5.5,2013-04-15 14:35:00,
2013-04-15 10:40:00,47.7,23.9,30.35,ESE,112,2.0,6.0,39,0.00,,,-99.99,WeatherLink 5.5,2013-04-15 14:40:00,
2013-04-15 10:45:00,47.7,23.9,30.35,ESE,112,2.0,6.0,39,0.00,,,-99.99,WeatherLink 5.5,2013-04-15 14:45:00,
2013-04-15 10:50:00,48.0,25.4,30.35,North,-999,0.0,0.0,41,0.00,,,-99.99,WeatherLink 5.5,2013-04-15 14:50:00,
2013-04-15 10:55:00,48.5,25.2,30.35,ESE,112,0.0,1.0,40,0.00,,,-99.99,WeatherLink 5.5,2013-04-15 14:55:00,
2013-04-15 11:00:00,48.5,25.2,30.35,ESE,112,0.0,1.0,40,0.00,,,-99.99,WeatherLink 5.5,2013-04-15 15:00:00,
2013-04-15 11:05:00,48.8,25.5,30.35,ESE,112,0.0,7.0,40,0.00,,,-99.99,WeatherLink 5.5,2013-04-15 15:05:00,
2013-04-15 11:10:00,49.1,24.6,30.35,NNE,22,1.0,7.0,38,0.00,,,-99.99,WeatherLink 5.5,2013-04-15 15:10:00,
2013-04-15 11:15:00,49.1,24.6,30.35,NNE,22,1.0,7.0,38,0.00,,,-99.99,WeatherLink 5.5,2013-04-15 15:15:00,
2013-04-15 11:20:00,49.3,24.7,30.35,WSW,247,2.0,7.0,38,0.00,,,-99.99,WeatherLink 5.5,2013-04-15 15:20:00,
2013-04-15 11:25:00,49.9,24.6,30.35,SSE,157,1.0,6.0,37,0.00,,,-99.99,WeatherLink 5.5,2013-04-15 15:25:00,
2013-04-15 11:30:00,49.9,24.6,30.35,SSE,157,1.0,6.0,37,0.00,,,-99.99,WeatherLink 5.5,2013-04-15 15:30:00,
2013-04-15 11:35:00,51.1,24.4,30.34,East,90,3.0,8.0,35,0.00,,,-99.99,WeatherLink 5.5,2013-04-15 15:35:00,
2013-04-15 11:40:00,51.4,25.3,30.34,ENE,67,0.0,4.0,36,0.00,,,-99.99,WeatherLink 5.5,2013-04-15 15:40:00,
2013-04-15 11:45:00,51.4,25.3,30.34,ENE,67,0.0,4.0,36,0.00,,,-99.99,WeatherLink 5.5,2013-04-15 15:45:00,
2013-04-15 11:50:00,51.9,22.9,30.34,SSE,157,2.0,7.0,32,0.00,,,-99.99,WeatherLink 5.5,2013-04-15 15:50:00,
2013-04-15 11:55:00,51.7,22.0,30.34,East,90,1.0,8.0,31,0.00,,,-99.99,WeatherLink 5.5,2013-04-15 15:55:00,
2013-04-15 12:00:00,51.7,22.0,30.34,East,90,1.0,8.0,31,0.00,,,-99.99,WeatherLink 5.5,2013-04-15 16:00:00,
2013-04-15 12:05:00,51.9,21.4,30.33,SW,225,4.0,9.0,30,0.00,,,-99.99,WeatherLink 5.5,2013-04-15 16:05:00,
2013-04-15 12:10:00,52.2,22.4,30.33,South,180,1.0,6.0,31,0.00,,,-99.99,WeatherLink 5.5,2013-04-15 16:10:00,
2013-04-15 12:15:00,52.2,22.4,30.33,South,180,1.0,6.0,31,0.00,,,-99.99,WeatherLink 5.5,2013-04-15 16:15:00,
2013-04-15 12:20:00,51.9,22.9,30.33,SE,135,0.0,6.0,32,0.00,,,-99.99,WeatherLink 5.5,2013-04-15 16:20:00,
2013-04-15 12:25:00,52.2,21.7,30.33,SW,225,1.0,4.0,30,0.00,,,-99.99,WeatherLink 5.5,2013-04-15 16:25:00,
2013-04-15 12:30:00,52.2,21.7,30.33,SW,225,1.0,4.0,30,0.00,,,-99.99,WeatherLink 5.5,2013-04-15 16:30:00,
2013-04-15 12:35:00,52.6,22.0,30.32,East,90,3.0,8.0,30,0.00,,,-99.99,WeatherLink 5.5,2013-04-15 16:35:00,
2013-04-15 12:40:00,52.6,23.5,30.32,East,90,2.0,7.0,32,0.00,,,-99.99,WeatherLink 5.5,2013-04-15 16:40:00,
2013-04-15 12:45:00,52.6,23.5,30.32,East,90,2.0,7.0,32,0.00,,,-99.99,WeatherLink 5.5,2013-04-15 16:45:00,
2013-04-15 12:50:00,53.5,22.0,30.31,ENE,67,2.0,7.0,29,0.00,,,-99.99,WeatherLink 5.5,2013-04-15 16:50:00,
2013-04-15 12:55:00,53.8,22.2,30.31,ENE,67,0.0,4.0,29,0.00,,,-99.99,WeatherLink 5.5,2013-04-15 16:55:00,
2013-04-15 13:00:00,53.8,22.2,30.31,ENE,67,0.0,4.0,29,0.00,,,-99.99,WeatherLink 5.5,2013-04-15 17:00:00,
2013-04-15 13:05:00,55.1,21.7,30.31,WSW,247,2.0,8.0,27,0.00,,,-99.99,WeatherLink 5.5,2013-04-15 17:05:00,
2013-04-15 13:10:00,54.8,23.1,30.31,WSW,247,1.0,6.0,29,0.00,,,-99.99,WeatherLink 5.5,2013-04-15 17:10:00,
2013-04-15 13:15:00,54.8,23.1,30.31,WSW,247,1.0,6.0,29,0.00,,,-99.99,WeatherLink 5.5,2013-04-15 17:15:00,
2013-04-15 13:20:00,55.6,24.6,30.31,SSE,157,2.0,8.0,30,0.00,,,-99.99,WeatherLink 5.5,2013-04-15 17:20:00,
2013-04-15 13:25:00,55.7,23.9,30.31,East,90,2.0,8.0,29,0.00,,,-99.99,WeatherLink 5.5,2013-04-15 17:25:00,
2013-04-15 13:30:00,55.7,23.9,30.31,East,90,2.0,8.0,29,0.00,,,-99.99,WeatherLink 5.5,2013-04-15 17:30:00,
2013-04-15 13:35:00,54.7,22.2,30.31,ENE,67,1.0,4.0,28,0.00,,,-99.99,WeatherLink 5.5,2013-04-15 17:35:00,
2013-04-15 13:40:00,55.4,24.4,30.31,South,180,2.0,8.0,30,0.00,,,-99.99,WeatherLink 5.5,2013-04-15 17:40:00,
2013-04-15 13:45:00,55.4,24.4,30.31,South,180,2.0,8.0,30,0.00,,,-99.99,WeatherLink 5.5,2013-04-15 17:45:00,
2013-04-15 13:50:00,55.3,22.7,30.31,ENE,67,4.0,7.0,28,0.00,,,-99.99,WeatherLink 5.5,2013-04-15 17:50:00,
2013-04-15 13:55:00,55.3,22.7,30.31,ENE,67,5.0,10.0,28,0.00,,,-99.99,WeatherLink 5.5,2013-04-15 17:55:00,
2013-04-15 14:00:00,55.3,22.7,30.31,ENE,67,5.0,10.0,28,0.00,,,-99.99,WeatherLink 5.5,2013-04-15 18:00:00,
2013-04-15 14:05:00,55.1,23.4,30.30,East,90,4.0,10.0,29,0.00,,,-99.99,WeatherLink 5.5,2013-04-15 18:05:00,
2013-04-15 14:10:00,55.1,23.4,30.30,East,90,3.0,8.0,29,0.00,,,-99.99,WeatherLink 5.5,2013-04-15 18:10:00,
2013-04-15 14:15:00,55.1,23.4,30.30,East,90,3.0,8.0,29,0.00,,,-99.99,WeatherLink 5.5,2013-04-15 18:15:00,
2013-04-15 14:20:00,55.7,23.9,30.30,East,90,1.0,7.0,29,0.00,,,-99.99,WeatherLink 5.5,2013-04-15 18:20:00,
2013-04-15 14:25:00,56.0,22.4,30.30,East,90,5.0,10.0,27,0.00,,,-99.99,WeatherLink 5.5,2013-04-15 18:25:00,
2013-04-15 14:30:00,56.0,22.4,30.30,East,90,5.0,10.0,27,0.00,,,-99.99,WeatherLink 5.5,2013-04-15 18:30:00,
2013-04-15 14:35:00,55.9,24.1,30.30,South,180,1.0,6.0,29,0.00,,,-99.99,WeatherLink 5.5,2013-04-15 18:35:00,
2013-04-15 14:40:00,56.3,23.6,30.30,ENE,67,2.0,8.0,28,0.00,,,-99.99,WeatherLink 5.5,2013-04-15 18:40:00,
2013-04-15 14:45:00,56.3,23.6,30.30,ENE,67,2.0,8.0,28,0.00,,,-99.99,WeatherLink 5.5,2013-04-15 18:45:00,
2013-04-15 14:50:00,57.0,22.4,30.29,ENE,67,0.0,4.0,26,0.00,,,-99.99,WeatherLink 5.5,2013-04-15 18:50:00,
2013-04-15 14:55:00,57.7,21.1,30.29,WSW,247,2.0,7.0,24,0.00,,,-99.99,WeatherLink 5.5,2013-04-15 18:55:00,
2013-04-15 15:00:00,57.7,21.1,30.29,WSW,247,2.0,7.0,24,0.00,,,-99.99,WeatherLink 5.5,2013-04-15 19:00:00,
2013-04-15 15:05:00,57.3,21.7,30.28,SSE,157,0.0,4.0,25,0.00,,,-99.99,WeatherLink 5.5,2013-04-15 19:05:00,
2013-04-15 15:10:00,57.2,20.7,30.28,SSW,202,1.0,6.0,24,0.00,,,-99.99,WeatherLink 5.5,2013-04-15 19:10:00,
2013-04-15 15:15:00,57.2,20.7,30.28,SSW,202,1.0,6.0,24,0.00,,,-99.99,WeatherLink 5.5,2013-04-15 19:15:00,
2013-04-15 15:20:00,57.5,20.9,30.28,ESE,112,1.0,4.0,24,0.00,,,-99.99,WeatherLink 5.5,2013-04-15 19:20:00,
2013-04-15 15:25:00,57.3,23.6,30.28,ESE,112,3.0,7.0,27,0.00,,,-99.99,WeatherLink 5.5,2013-04-15 19:25:00,
2013-04-15 15:30:00,57.7,21.1,30.27,SE,135,0.0,4.0,24,0.00,,,-99.99,WeatherLink 5.5,2013-04-15 19:30:00,
2013-04-15 15:35:00,58.6,21.9,30.27,WSW,247,0.0,4.0,24,0.00,,,-99.99,WeatherLink 5.5,2013-04-15 19:35:00,
2013-04-15 15:40:00,58.6,21.9,30.27,WSW,247,1.0,8.0,24,0.00,,,-99.99,WeatherLink 5.5,2013-04-15 19:40:00,
2013-04-15 15:45:00,58.0,21.4,30.27,ENE,67,4.0,9.0,24,0.00,,,-99.99,WeatherLink 5.5,2013-04-15 19:45:00,
2013-04-15 15:50:00,57.3,21.7,30.27,East,90,1.0,8.0,25,0.00,,,-99.99,WeatherLink 5.5,2013-04-15 19:50:00,
2013-04-15 15:55:00,57.8,22.2,30.27,East,90,2.0,7.0,25,0.00,,,-99.99,WeatherLink 5.5,2013-04-15 19:55:00,
2013-04-15 16:00:00,57.8,22.2,30.27,East,90,2.0,7.0,25,0.00,,,-99.99,WeatherLink 5.5,2013-04-15 20:00:00,
2013-04-15 16:05:00,57.5,22.8,30.26,East,90,4.0,9.0,26,0.00,,,-99.99,WeatherLink 5.5,2013-04-15 20:05:00,
2013-04-15 16:10:00,57.8,22.2,30.26,East,90,2.0,8.0,25,0.00,,,-99.99,WeatherLink 5.5,2013-04-15 20:10:00,
2013-04-15 16:15:00,57.8,22.2,30.26,East,90,2.0,8.0,25,0.00,,,-99.99,WeatherLink 5.5,2013-04-15 20:15:00,
2013-04-15 16:20:00,58.0,22.3,30.26,SE,135,2.0,9.0,25,0.00,,,-99.99,WeatherLink 5.5,2013-04-15 20:20:00,
2013-04-15 16:25:00,58.1,21.4,30.26,ESE,112,3.0,7.0,24,0.00,,,-99.99,WeatherLink 5.5,2013-04-15 20:25:00,
2013-04-15 16:30:00,58.1,22.4,30.25,ESE,112,2.0,8.0,25,0.00,,,-99.99,WeatherLink 5.5,2013-04-15 20:30:00,
2013-04-15 16:35:00,58.4,22.7,30.25,East,90,2.0,10.0,25,0.00,,,-99.99,WeatherLink 5.5,2013-04-15 20:35:00,
2013-04-15 16:40:00,57.8,24.9,30.25,East,90,4.0,11.0,28,0.00,,,-99.99,WeatherLink 5.5,2013-04-15 20:40:00,
2013-04-15 16:45:00,57.8,24.9,30.25,East,90,4.0,11.0,28,0.00,,,-99.99,WeatherLink 5.5,2013-04-15 20:45:00,
2013-04-15 16:50:00,56.4,26.9,30.25,ENE,67,5.0,11.0,32,0.00,,,-99.99,WeatherLink 5.5,2013-04-15 20:50:00,
2013-04-15 16:55:00,56.0,27.3,30.25,East,90,6.0,14.0,33,0.00,,,-99.99,WeatherLink 5.5,2013-04-15 20:55:00,
2013-04-15 17:00:00,56.0,27.3,30.25,East,90,6.0,14.0,33,0.00,,,-99.99,WeatherLink 5.5,2013-04-15 21:00:00,
2013-04-15 17:05:00,55.1,27.2,30.26,East,90,7.0,15.0,34,0.00,,,-99.99,WeatherLink 5.5,2013-04-15 21:05:00,
2013-04-15 17:10:00,55.1,27.9,30.26,ENE,67,4.0,13.0,35,0.00,,,-99.99,WeatherLink 5.5,2013-04-15 21:10:00,
2013-04-15 17:15:00,55.1,27.9,30.26,ENE,67,4.0,13.0,35,0.00,,,-99.99,WeatherLink 5.5,2013-04-15 21:15:00,
2013-04-15 17:20:00,54.8,27.6,30.27,ENE,67,3.0,8.0,35,0.00,,,-99.99,WeatherLink 5.5,2013-04-15 21:20:00,
2013-04-15 17:25:00,54.2,27.1,30.27,East,90,6.0,14.0,35,0.00,,,-99.99,WeatherLink 5.5,2013-04-15 21:25:00,
2013-04-15 17:30:00,54.2,27.1,30.27,East,90,6.0,14.0,35,0.00,,,-99.99,WeatherLink 5.5,2013-04-15 21:30:00,
2013-04-15 17:35:00,53.8,27.4,30.27,East,90,7.0,16.0,36,0.00,,,-99.99,WeatherLink 5.5,2013-04-15 21:35:00,
2013-04-15 17:40:00,53.5,28.5,30.27,East,90,5.0,14.0,38,0.00,,,-99.99,WeatherLink 5.5,2013-04-15 21:40:00,
2013-04-15 17:45:00,53.5,28.5,30.27,East,90,5.0,14.0,38,0.00,,,-99.99,WeatherLink 5.5,2013-04-15 21:45:00,
2013-04-15 17:50:00,52.9,28.0,30.27,East,90,7.0,21.0,38,0.00,,,-99.99,WeatherLink 5.5,2013-04-15 21:50:00,
2013-04-15 17:55:00,52.6,28.3,30.27,ENE,67,5.0,13.0,39,0.00,,,-99.99,WeatherLink 5.5,2013-04-15 21:55:00,
2013-04-15 18:00:00,52.6,28.3,30.27,ENE,67,5.0,13.0,39,0.00,,,-99.99,WeatherLink 5.5,2013-04-15 22:00:00,
2013-04-15 18:05:00,52.2,27.3,30.28,ENE,67,5.0,13.0,38,0.00,,,-99.99,WeatherLink 5.5,2013-04-15 22:05:00,
2013-04-15 18:10:00,52.2,27.3,30.28,East,90,3.0,9.0,38,0.00,,,-99.99,WeatherLink 5.5,2013-04-15 22:10:00,
2013-04-15 18:15:00,52.2,27.3,30.28,East,90,3.0,9.0,38,0.00,,,-99.99,WeatherLink 5.5,2013-04-15 22:15:00,
2013-04-15 18:20:00,51.7,27.5,30.28,ENE,67,3.0,8.0,39,0.00,,,-99.99,WeatherLink 5.5,2013-04-15 22:20:00,
2013-04-15 18:25:00,51.6,28.0,30.28,East,90,5.0,11.0,40,0.00,,,-99.99,WeatherLink 5.5,2013-04-15 22:25:00,
2013-04-15 18:30:00,51.6,28.0,30.28,East,90,5.0,11.0,40,0.00,,,-99.99,WeatherLink 5.5,2013-04-15 22:30:00,
2013-04-15 18:35:00,51.0,27.5,30.28,East,90,4.0,9.0,40,0.00,,,-99.99,WeatherLink 5.5,2013-04-15 22:35:00,
2013-04-15 18:40:00,50.8,27.9,30.28,East,90,4.0,11.0,41,0.00,,,-99.99,WeatherLink 5.5,2013-04-15 22:40:00,
2013-04-15 18:45:00,50.8,27.9,30.28,East,90,4.0,11.0,41,0.00,,,-99.99,WeatherLink 5.5,2013-04-15 22:45:00,
2013-04-15 18:50:00,50.4,27.6,30.29,East,90,4.0,9.0,41,0.00,,,-99.99,WeatherLink 5.5,2013-04-15 22:50:00,
2013-04-15 18:55:00,50.2,28.0,30.29,ENE,67,3.0,11.0,42,0.00,,,-99.99,WeatherLink 5.5,2013-04-15 22:55:00,
2013-04-15 19:00:00,50.2,28.0,30.29,ENE,67,3.0,11.0,42,0.00,,,-99.99,WeatherLink 5.5,2013-04-15 23:00:00,
2013-04-15 19:05:00,49.8,28.7,30.30,East,90,1.0,4.0,44,0.00,,,-99.99,WeatherLink 5.5,2013-04-15 23:05:00,
2013-04-15 19:10:00,49.6,29.1,30.30,ENE,67,1.0,6.0,45,0.00,,,-99.99,WeatherLink 5.5,2013-04-15 23:10:00,
2013-04-15 19:15:00,49.6,29.1,30.30,ENE,67,1.0,6.0,45,0.00,,,-99.99,WeatherLink 5.5,2013-04-15 23:15:00,
2013-04-15 19:20:00,49.3,29.9,30.31,ENE,67,0.0,2.0,47,0.00,,,-99.99,WeatherLink 5.5,2013-04-15 23:20:00,
2013-04-15 19:25:00,49.2,30.3,30.31,ENE,67,0.0,2.0,48,0.00,,,-99.99,WeatherLink 5.5,2013-04-15 23:25:00,
2013-04-15 19:30:00,49.2,30.3,30.31,ENE,67,0.0,2.0,48,0.00,,,-99.99,WeatherLink 5.5,2013-04-15 23:30:00,
2013-04-15 19:35:00,48.8,31.0,30.32,ENE,67,1.0,6.0,50,0.00,,,-99.99,WeatherLink 5.5,2013-04-15 23:35:00,
2013-04-15 19:40:00,48.6,31.3,30.32,ENE,67,0.0,4.0,51,0.00,,,-99.99,WeatherLink 5.5,2013-04-15 23:40:00,
2013-04-15 19:45:00,48.6,31.3,30.32,ENE,67,0.0,4.0,51,0.00,,,-99.99,WeatherLink 5.5,2013-04-15 23:45:00,
2013-04-15 19:50:00,48.2,31.4,30.33,ENE,67,1.0,6.0,52,0.00,,,-99.99,WeatherLink 5.5,2013-04-15 23:50:00,
2013-04-15 19:55:00,47.9,31.6,30.33,ENE,67,1.0,7.0,53,0.00,,,-99.99,WeatherLink 5.5,2013-04-15 23:55:00,
2013-04-15 20:00:00,47.9,31.6,30.33,ENE,67,1.0,7.0,53,0.00,,,-99.99,WeatherLink 5.5,2013-04-16 00:00:00,
2013-04-15 20:05:00,47.4,31.6,30.32,NNE,22,2.0,7.0,54,0.00,,,-99.99,WeatherLink 5.5,2013-04-16 00:05:00,
2013-04-15 20:10:00,47.1,31.7,30.32,ENE,67,1.0,4.0,55,0.00,,,-99.99,WeatherLink 5.5,2013-04-16 00:10:00,
2013-04-15 20:15:00,47.1,31.7,30.32,ENE,67,1.0,4.0,55,0.00,,,-99.99,WeatherLink 5.5,2013-04-16 00:15:00,
2013-04-15 20:20:00,46.7,31.8,30.31,NE,45,4.0,8.0,56,0.00,,,-99.99,WeatherLink 5.5,2013-04-16 00:20:00,
2013-04-15 20:25:00,46.5,31.6,30.31,NE,45,1.0,8.0,56,0.00,,,-99.99,WeatherLink 5.5,2013-04-16 00:25:00,
2013-04-15 20:30:00,46.5,31.6,30.31,NE,45,1.0,8.0,56,0.00,,,-99.99,WeatherLink 5.5,2013-04-16 00:30:00,
2013-04-15 20:35:00,46.1,31.7,30.31,ENE,67,1.0,7.0,57,0.00,,,-99.99,WeatherLink 5.5,2013-04-16 00:35:00,
2013-04-15 20:40:00,45.9,31.9,30.31,ENE,67,0.0,4.0,58,0.00,,,-99.99,WeatherLink 5.5,2013-04-16 00:40:00,
2013-04-15 20:45:00,45.9,31.9,30.31,ENE,67,0.0,4.0,58,0.00,,,-99.99,WeatherLink 5.5,2013-04-16 00:45:00,
2013-04-15 20:50:00,45.8,32.3,30.33,East,90,1.0,4.0,59,0.00,,,-99.99,WeatherLink 5.5,2013-04-16 00:50:00,
2013-04-15 20:55:00,45.7,32.2,30.33,ENE,67,2.0,7.0,59,0.00,,,-99.99,WeatherLink 5.5,2013-04-16 00:55:00,
2013-04-15 21:00:00,45.7,32.2,30.33,ENE,67,2.0,7.0,59,0.00,,,-99.99,WeatherLink 5.5,2013-04-16 01:00:00,
2013-04-15 21:05:00,45.4,32.3,30.33,ENE,67,0.0,2.0,60,0.00,,,-99.99,WeatherLink 5.5,2013-04-16 01:05:00,
2013-04-15 21:10:00,45.2,32.1,30.33,ENE,67,0.0,4.0,60,0.00,,,-99.99,WeatherLink 5.5,2013-04-16 01:10:00,
2013-04-15 21:15:00,45.2,32.1,30.33,ENE,67,0.0,4.0,60,0.00,,,-99.99,WeatherLink 5.5,2013-04-16 01:15:00,
2013-04-15 21:20:00,44.9,32.3,30.33,ENE,67,1.0,6.0,61,0.00,,,-99.99,WeatherLink 5.5,2013-04-16 01:20:00,
2013-04-15 21:25:00,44.8,32.6,30.33,ENE,67,0.0,2.0,62,0.00,,,-99.99,WeatherLink 5.5,2013-04-16 01:25:00,
2013-04-15 21:30:00,44.8,32.6,30.33,ENE,67,0.0,2.0,62,0.00,,,-99.99,WeatherLink 5.5,2013-04-16 01:30:00,
2013-04-15 21:35:00,44.5,32.7,30.33,North,-999,0.0,0.0,63,0.00,,,-99.99,WeatherLink 5.5,2013-04-16 01:35:00,
2013-04-15 21:40:00,44.3,32.5,30.33,ENE,67,0.0,1.0,63,0.00,,,-99.99,WeatherLink 5.5,2013-04-16 01:40:00,
2013-04-15 21:45:00,44.3,32.5,30.33,ENE,67,0.0,1.0,63,0.00,,,-99.99,WeatherLink 5.5,2013-04-16 01:45:00,
2013-04-15 21:50:00,44.0,32.6,30.33,East,90,0.0,2.0,64,0.00,,,-99.99,WeatherLink 5.5,2013-04-16 01:50:00,
2013-04-15 21:55:00,43.9,32.5,30.33,North,-999,0.0,0.0,64,0.00,,,-99.99,WeatherLink 5.5,2013-04-16 01:55:00,
2013-04-15 22:00:00,43.8,32.8,30.33,East,90,0.0,1.0,65,0.00,,,-99.99,WeatherLink 5.5,2013-04-16 02:00:00,
2013-04-15 22:05:00,43.8,32.8,30.33,East,90,0.0,2.0,65,0.00,,,-99.99,WeatherLink 5.5,2013-04-16 02:05:00,
2013-04-15 22:10:00,-999.0,-99.9,30.33,North,-999,0.0,0.0,66,0.00,,,-99.99,WeatherLink 5.5,2013-04-16 02:10:00,
2013-04-15 22:15:00,43.5,32.9,30.34,East,90,0.0,1.0,66,0.00,,,-99.99,WeatherLink 5.5,2013-04-16 02:15:00,
2013-04-15 22:20:00,43.5,32.9,30.34,North,-999,0.0,0.0,66,0.00,,,-99.99,WeatherLink 5.5,2013-04-16 02:20:00,
2013-04-15 22:25:00,43.2,32.6,30.34,North,-999,0.0,0.0,66,0.00,,,-99.99,WeatherLink 5.5,2013-04-16 02:25:00,
2013-04-15 22:30:00,43.2,32.6,30.34,North,-999,0.0,0.0,66,0.00,,,-99.99,WeatherLink 5.5,2013-04-16 02:30:00,
2013-04-15 22:35:00,42.9,32.7,30.34,North,-999,0.0,0.0,67,0.00,,,-99.99,WeatherLink 5.5,2013-04-16 02:35:00,
2013-04-15 22:40:00,42.8,32.6,30.34,North,-999,0.0,0.0,67,0.00,,,-99.99,WeatherLink 5.5,2013-04-16 02:40:00,
2013-04-15 22:45:00,42.8,32.6,30.34,North,-999,0.0,0.0,67,0.00,,,-99.99,WeatherLink 5.5,2013-04-16 02:45:00,
2013-04-15 22:50:00,42.8,32.2,30.34,East,90,0.0,2.0,66,0.00,,,-99.99,WeatherLink 5.5,2013-04-16 02:50:00,
2013-04-15 22:55:00,42.8,32.2,30.34,East,90,0.0,4.0,66,0.00,,,-99.99,WeatherLink 5.5,2013-04-16 02:55:00,
2013-04-15 23:00:00,42.8,32.2,30.34,East,90,0.0,4.0,66,0.00,,,-99.99,WeatherLink 5.5,2013-04-16 03:00:00,
2013-04-15 23:05:00,43.0,31.3,30.34,SE,135,1.0,4.0,63,0.00,,,-99.99,WeatherLink 5.5,2013-04-16 03:05:00,
2013-04-15 23:10:00,43.2,30.6,30.34,ESE,112,2.0,8.0,61,0.00,,,-99.99,WeatherLink 5.5,2013-04-16 03:10:00,
2013-04-15 23:15:00,43.2,30.6,30.34,ESE,112,2.0,8.0,61,0.00,,,-99.99,WeatherLink 5.5,2013-04-16 03:15:00,
2013-04-15 23:20:00,43.6,30.2,30.33,East,90,1.0,7.0,59,0.00,,,-99.99,WeatherLink 5.5,2013-04-16 03:20:00,
2013-04-15 23:25:00,43.8,30.0,30.33,ESE,112,1.0,6.0,58,0.00,,,-99.99,WeatherLink 5.5,2013-04-16 03:25:00,
2013-04-15 23:30:00,43.8,30.0,30.33,ESE,112,1.0,6.0,58,0.00,,,-99.99,WeatherLink 5.5,2013-04-16 03:30:00,
2013-04-15 23:35:00,43.9,29.6,30.33,East,90,1.0,8.0,57,0.00,,,-99.99,WeatherLink 5.5,2013-04-16 03:35:00,
2013-04-15 23:40:00,43.9,29.6,30.33,SE,135,2.0,7.0,57,0.00,,,-99.99,WeatherLink 5.5,2013-04-16 03:40:00,
2013-04-15 23:45:00,43.9,29.6,30.33,SE,135,2.0,7.0,57,0.00,,,-99.99,WeatherLink 5.5,2013-04-16 03:45:00,
2013-04-15 23:50:00,43.9,29.6,30.35,SE,135,1.0,6.0,57,0.00,,,-99.99,WeatherLink 5.5,2013-04-16 03:50:00,
2013-04-15 23:55:00,43.8,29.5,30.35,SE,135,0.0,2.0,57,0.00,,,-99.99,WeatherLink 5.5,2013-04-16 03:55:00,